Find STARLINK-37787

NORAD ID: 799501039 Int'l Des: 2026-146R Constellation: starlink operational

現在のビュー

3D地球を読み込み中...

About STARLINK-37787

STARLINK-37787 (NORAD 799501039) is a starlink constellation satellite launched Jun 12, 2026

STARLINK-37787について

説明を読み込み中...

次回通過

Passes for default location (London). Set your location on the main map for personalized predictions.

高度履歴

Loading altitude history...

軌道要素

1 99999C 2026146R 26176.32895832 .00719130 00000-0 110410-3 0 1766
2 99999 97.2854 21.9844 0011251 277.4967 183.5785 16.03832831 15
Epoch: Jun 25, 2026 • Age: 10 hours